Torna al catalogo

THORAD AGENA D DEB

AttivoLEO
NORAD 42520·DEBRIS·🇺🇸 United States

Lanciato Apr 8, 1970 da Vandenberg Space Force Base

Loading…

Prossimi Passaggi (prossime 24 ore)

TLE

In scadenzaSource: Space-Track

Epoca: Sep 11, 2026, 11:07 UTC

1 42520U 70025SA  26254.46368200  .00000679  00000-0  56877-3 0  9993
2 42520 100.2899 130.1946 0092431 235.7674 123.4698 13.90533612639139

Traccia THORAD AGENA D DEB in tempo reale con AllMySat

Download on the App Store